Home   Weather   Bucharest   Past weeks

Flag for Romania Past Weather in Bucharest, Romania — Yesterday and Last 2 Weeks

Now
32 °F

Clear.


Feels Like: 23 °F
Forecast: 27 / 41 °F
Wind: 12 mph from West

Location: Bucharest / Imh

Current Time: Dec 9, 2016 at 12:07:54 am

Latest Report: Dec 8, 2016 at 11:30 pm


Visibility: 4 mi

Pressure: 30.36 "Hg

Humidity: 87%

Dew Point: 28 °F

Location of BucharestLocation

Past Weather in Bucharest — Graph

°F

Bucharest Temperature Yesterday

Maximum temperature yesterday: 41 °F (at 1:30 pm)
Minimum temperature yesterday: 28 °F (at 6:00 am)
Average temperature yesterday: 34 °F

High & Low Weather Summary for the Past Weeks

 TemperatureHumidityPressure
High50 °F (Dec 2, 2:30 pm)100% (Nov 26, 11:00 am)30.77 "Hg (Nov 26, 11:00 am)
Low21 °F (Dec 5, 6:30 am)34% (Dec 3, 2:00 pm)29.47 "Hg (Dec 2, 1:00 pm)
Average36 °F80%30.21 "Hg
* Reported Nov 23 11:00 pm — Dec 8 11:00 pm, Bucharest, Weather by CustomWeather, © 2016

Note: Actual official high and low records may vary slightly from our data, if they occured in-between our weather recording intervals... More about our weather records

Advertising

Bucharest Weather History for the Previous 24 Hours

Scroll right to see more
 ConditionsComfort  
Time TempWeatherWind HumidityBarometerVisibility
11:00 pm
Thu, Dec 8
32 °FClear.13 mph87%30.33 "Hg4 mi
10:30 pm32 °FClear.9 mph87%30.36 "Hg4 mi
10:00 pm32 °FClear.7 mph87%30.36 "Hg3 mi
9:30 pm32 °FIce fog.10 mph87%30.36 "Hg3 mi
9:00 pm30 °FIce fog.12 mph93%30.39 "Hg2 mi
8:30 pm32 °FIce fog.14 mph87%30.39 "Hg2 mi
8:00 pm30 °FIce fog.13 mph93%30.39 "Hg2 mi
7:30 pm30 °FIce fog.16 mph93%30.39 "Hg2 mi
7:00 pm32 °FIce fog.15 mph87%30.42 "Hg2 mi
6:30 pm32 °FIce fog.15 mph87%30.42 "Hg2 mi
6:00 pm32 °FIce fog.14 mph87%30.42 "Hg2 mi
5:30 pm34 °FClear.14 mph81%30.42 "Hg4 mi
5:00 pm36 °FClear.15 mph75%30.45 "Hg4 mi
4:30 pm37 °FClear.14 mph65%30.45 "Hg5 mi
4:00 pm37 °FPassing clouds.17 mph70%30.48 "HgN/A
3:30 pm39 °FSunny.17 mph65%30.45 "Hg10 mi
3:00 pm39 °FPassing clouds.16 mph65%30.48 "HgN/A
2:30 pm39 °FSunny.17 mph65%30.48 "Hg10 mi
2:00 pm41 °FPassing clouds.16 mph53%30.51 "HgN/A
1:30 pm41 °FPassing clouds.16 mph57%30.51 "HgN/A
1:00 pm39 °FPassing clouds.16 mph61%30.54 "HgN/A
12:30 pm39 °FPassing clouds.15 mph61%30.54 "HgN/A
12:00 pm39 °FPassing clouds.15 mph65%30.57 "HgN/A
11:30 am37 °FPassing clouds.14 mph70%30.57 "HgN/A
11:00 am36 °FClear.13 mph75%30.60 "Hg6 mi
10:30 am36 °FClear.13 mph75%30.63 "Hg5 mi
10:00 am34 °FClear.10 mph81%30.63 "Hg5 mi
9:30 am32 °FClear.9 mph87%30.63 "Hg5 mi
9:00 am30 °FClear.8 mph86%30.66 "Hg4 mi
8:30 am30 °FClear.7 mph86%30.66 "Hg5 mi
8:00 am28 °FClear.6 mph86%30.66 "Hg5 mi
7:30 am28 °FChilly.7 mph86%30.66 "HgN/A
7:00 am28 °FClear.5 mph86%30.66 "Hg10 mi
6:30 am28 °FClear.6 mph86%30.69 "Hg10 mi
6:00 am28 °FClear.6 mph80%30.69 "Hg10 mi
5:30 am30 °FClear.6 mph75%30.69 "Hg10 mi
4:30 am32 °FChilly.5 mph69%30.72 "HgN/A
3:30 am34 °FOvercast.5 mph65%30.74 "HgN/A
3:00 am32 °FOvercast.5 mph64%30.74 "HgN/A
2:30 am34 °FPartly cloudy.5 mph60%30.74 "HgN/A
2:00 am34 °FMostly cloudy.5 mph60%30.74 "HgN/A
1:30 am34 °FPartly cloudy.3 mph60%30.77 "HgN/A
1:00 am34 °FPartly cloudy.3 mph60%30.74 "HgN/A
12:30 am34 °FClear.2 mph65%30.77 "Hg10 mi
12:00 am34 °FClear.3 mph65%30.77 "Hg10 mi
Weather by CustomWeather, © 2016

See weather overviewHow to use our weather pages